TimeCDT,TemperatureF,Dew PointF,Humidity,Sea Level PressureIn,VisibilityMPH,Wind Direction,Wind SpeedMPH,Gust SpeedMPH,PrecipitationIn,Events,Conditions,WindDirDegrees,DateUTC
12:54 AM,53.1,44.1,71,29.75,10.0,ENE,6.9,-,N/A,,Clear,70,2012-10-21 05:54:00
1:54 AM,52.0,44.1,74,29.75,10.0,East,3.5,-,N/A,,Clear,80,2012-10-21 06:54:00
2:54 AM,51.1,44.1,77,29.76,10.0,Calm,Calm,-,N/A,,Clear,0,2012-10-21 07:54:00
3:54 AM,51.1,44.1,77,29.76,10.0,Calm,Calm,-,N/A,,Clear,0,2012-10-21 08:54:00
4:54 AM,51.1,44.1,77,29.77,10.0,ENE,3.5,-,N/A,,Clear,60,2012-10-21 09:54:00
5:54 AM,50.0,44.1,80,29.78,10.0,East,3.5,-,N/A,,Clear,80,2012-10-21 10:54:00
6:54 AM,50.0,44.1,80,29.79,10.0,ENE,5.8,-,N/A,,Clear,60,2012-10-21 11:54:00
7:54 AM,50.0,45.0,83,29.80,10.0,East,3.5,-,N/A,,Clear,80,2012-10-21 12:54:00
8:54 AM,57.0,48.0,72,29.80,10.0,Calm,Calm,-,N/A,,Clear,0,2012-10-21 13:54:00
9:54 AM,64.0,52.0,65,29.81,10.0,Calm,Calm,-,N/A,,Clear,0,2012-10-21 14:54:00
10:54 AM,71.1,57.9,63,29.81,10.0,South,9.2,-,N/A,,Clear,170,2012-10-21 15:54:00
11:54 AM,73.9,60.1,62,29.80,10.0,SSE,6.9,-,N/A,,Clear,160,2012-10-21 16:54:00
12:54 PM,75.9,63.0,64,29.79,10.0,South,10.4,-,N/A,,Clear,180,2012-10-21 17:54:00
1:23 PM,75.2,62.6,65,29.80,10.0,South,11.5,-,N/A,,Mostly Cloudy,170,2012-10-21 18:23:00
1:54 PM,75.0,64.0,69,29.77,10.0,South,9.2,-,N/A,,Overcast,170,2012-10-21 18:54:00
2:54 PM,75.0,64.0,69,29.75,10.0,Variable,5.8,-,N/A,,Overcast,0,2012-10-21 19:54:00
3:31 PM,75.2,64.4,69,29.76,10.0,SSE,8.1,-,N/A,,Overcast,160,2012-10-21 20:31:00
3:54 PM,75.9,64.9,69,29.75,10.0,SSE,6.9,-,N/A,,Overcast,150,2012-10-21 20:54:00
4:54 PM,75.9,64.9,69,29.74,10.0,SSE,8.1,-,N/A,,Overcast,150,2012-10-21 21:54:00
5:54 PM,75.9,64.9,69,29.74,10.0,SE,10.4,-,N/A,,Overcast,130,2012-10-21 22:54:00
6:54 PM,75.0,66.0,73,29.74,10.0,SE,10.4,-,N/A,,Mostly Cloudy,130,2012-10-21 23:54:00
7:54 PM,73.9,64.9,73,29.75,10.0,SE,9.2,-,N/A,,Clear,140,2012-10-22 00:54:00
8:54 PM,73.9,64.9,73,29.77,10.0,South,11.5,-,N/A,,Mostly Cloudy,170,2012-10-22 01:54:00
9:54 PM,75.9,64.9,69,29.77,10.0,SSE,9.2,-,N/A,,Overcast,150,2012-10-22 02:54:00
10:54 PM,75.0,64.9,71,29.78,10.0,Variable,4.6,-,N/A,,Overcast,0,2012-10-22 03:54:00
11:54 PM,73.9,64.9,73,29.78,10.0,SSE,10.4,-,N/A,,Overcast,160,2012-10-22 04:54:00